[[[{"header":{"parameterUnit":"kt","parameterCategory":2,"dx":1,"dy":1,"la1":30.253999710083008,"la2":30.299108505249023,"lo1":-89.0895004272461,"lo2":-89.04439544677734,"nx":28,"ny":28,"refTime":"2022-09-17T21:00:00:Z","depth":"0","parameterNumber":2,"parameterNumberName":"U-component_of_CURRENTS"},"data":[-0.2213,-0.2234,-0.2223,-0.2298,-0.2352,-0.2434,-0.2551,-0.2732,-0.2926,-0.316,-0.3316,-0.353,-0.3585,-0.3819,-0.3652,-0.3481,-0.3316,-0.3233,-0.3319,-0.3325,-0.3342,-0.3357,-0.3191,-0.3203,-0.3202,-0.2888,-0.2886,-0.2884,-0.2168,-0.2157,-0.2234,-0.2338,-0.2429,-0.2514,-0.2809,-0.2903,-0.3198,-0.3535,-0.381,-0.3993,-0.3951,-0.4011,-0.39,-0.3751,-0.3569,-0.3621,-0.3385,-0.3318,-0.3527,-0.3362,-0.341,-0.341,-0.341,-0.341,-0.341,-0.341,-0.2085,-0.2125,-0.2172,-0.2285,-0.2416,-0.2611,-0.2718,-0.3005,-0.3305,-0.3677,-0.4033,-0.4275,-0.4348,-0.4369,-0.4385,-0.4166,-0.4152,-0.3849,-0.387,-0.385,-0.3635,-0.3865,-0.4093,-0.4095,-0.4098,-0.41,-0.4102,0,-0.204,-0.2046,-0.2124,-0.2241,-0.2361,-0.2541,-0.2751,-0.2922,-0.3259,-0.3538,-0.3996,-0.4217,-0.4539,-0.451,-0.4568,-0.4477,-0.4105,-0.4246,-0.4191,-0.3526,-0.3447,-0.335,-0.3528,-0.3764,-0.3765,-0.3766,-0.3767,-0.3767,-0.1977,-0.2006,-0.2143,-0.2213,-0.2277,-0.244,-0.2582,-0.2791,-0.2983,-0.347,-0.3654,-0.4002,-0.4248,-0.4523,-0.4436,-0.4463,-0.4292,-0.4268,-0.3911,-0.3836,-0.3833,-0.3774,-0.3672,-0.3778,-0.3776,-0.3775,-0.3774,0,-0.1946,-0.1984,-0.2096,-0.2247,-0.2302,-0.2412,-0.2646,-0.2798,-0.2993,-0.3303,-0.3378,-0.3665,-0.3915,-0.3963,-0.4103,-0.4011,-0.4031,-0.413,-0.3902,-0.3892,-0.3779,-0.3759,-0.4,-0.3911,-0.4267,-0.4271,-0.4274,0,-0.1943,-0.2013,-0.2111,-0.2162,-0.2313,-0.2424,-0.2603,-0.273,-0.294,-0.3165,-0.3212,-0.343,-0.3423,-0.3612,-0.3557,-0.3716,-0.3761,-0.3616,-0.3643,-0.3404,-0.3387,-0.3355,-0.3324,-0.3577,-0.3574,-0.3571,-0.3568,0,-0.1996,-0.2051,-0.2119,-0.2169,-0.2347,-0.2419,-0.2513,-0.2692,-0.2818,-0.2998,-0.3134,-0.321,-0.3319,-0.3333,-0.3382,-0.3248,-0.3606,-0.3425,-0.3522,-0.3529,-0.3394,-0.338,-0.3498,-0.3564,-0.3563,-0.3562,-0.3561,0,-0.2039,-0.21,-0.2102,-0.2349,-0.239,-0.2373,-0.2649,-0.2653,-0.2823,-0.2881,-0.2946,-0.296,-0.3057,-0.2918,-0.3082,-0.2983,-0.3024,-0.3049,-0.3064,-0.3116,-0.3052,-0.3217,-0.3307,-0.3223,-0.3215,-0.3211,-0.3208,0,-0.2208,-0.2184,-0.2266,-0.2286,-0.2352,-0.251,-0.2524,-0.2609,-0.2663,-0.2755,-0.2763,-0.2754,-0.2628,-0.2657,-0.2697,-0.275,-0.2848,-0.2673,-0.2943,-0.2953,-0.305,-0.315,-0.2917,-0.3244,-0.3156,-0.3161,-0.3165,0,-0.2369,-0.2483,-0.2484,-0.2554,-0.2621,-0.2661,-0.2636,-0.2715,-0.2806,-0.2672,-0.2771,-0.2557,-0.2624,-0.2571,-0.255,-0.2611,-0.2767,-0.2587,-0.2591,-0.2819,-0.3035,-0.3075,-0.3115,-0.2726,-0.2731,-0.2734,-0.3124,0,-0.2571,-0.2637,-0.2632,-0.2634,-0.267,-0.2689,-0.273,-0.2745,-0.2754,-0.2747,-0.2709,-0.261,-0.2565,-0.2465,-0.2427,-0.2474,-0.2515,-0.2453,-0.2538,-0.2533,-0.2695,-0.2728,-0.2334,-0.2333,-0.2333,-0.2332,0,0,-0.2743,-0.2789,-0.2903,-0.2858,-0.2908,-0.2996,-0.2958,-0.2935,-0.288,-0.2927,-0.2833,-0.2673,-0.2575,-0.255,-0.2479,-0.2405,-0.2492,-0.2439,-0.248,-0.2496,-0.2512,-0.267,-0.2702,-0.2331,-0.2331,-0.2331,-0.2331,0,-0.2811,-0.2981,-0.2934,-0.2957,-0.2989,-0.3009,-0.3025,-0.3015,-0.3005,-0.2901,-0.2868,-0.2817,-0.2598,-0.2562,-0.2504,-0.2411,-0.2458,-0.23,-0.2387,-0.2471,-0.2488,-0.2503,-0.2662,-0.2691,-0.2329,-0.233,-0.233,0,-0.2918,-0.2986,-0.3004,-0.308,-0.3083,-0.304,-0.3106,-0.3105,-0.3051,-0.304,-0.2924,-0.285,-0.2737,-0.2603,-0.2543,-0.2573,-0.2515,-0.2423,-0.2421,-0.2478,-0.2569,-0.2585,-0.2599,-0.2444,-0.2445,-0.2446,0,0,-0.2943,-0.2991,-0.305,-0.3089,-0.3111,-0.3115,-0.3113,-0.3103,-0.3074,-0.3054,-0.2974,-0.288,-0.2769,-0.2733,-0.2602,-0.2535,-0.262,-0.2444,-0.2438,-0.2434,-0.2487,-0.2577,-0.2589,-0.2451,-0.2451,-0.2451,0,0,-0.292,-0.3012,-0.3044,-0.3121,-0.3111,-0.3096,-0.3086,-0.31,-0.3049,-0.3052,-0.2981,-0.2955,-0.2827,-0.2782,-0.2849,-0.2593,-0.2604,-0.2591,-0.266,-0.2652,-0.2647,-0.2739,-0.2775,0,0,0,0,0,-0.2965,-0.3014,-0.3044,-0.3064,-0.3125,-0.3106,-0.31,-0.3074,-0.3106,-0.3076,-0.3032,-0.2983,-0.2762,-0.2822,-0.2801,-0.2718,-0.2504,-0.2495,-0.2486,-0.2552,-0.2544,-0.2537,0,0,0,0,0,0,-0.2973,-0.3001,-0.3041,-0.3049,-0.3062,-0.3106,-0.3099,-0.309,-0.3104,-0.3097,-0.2999,-0.2979,-0.2901,-0.2827,-0.281,-0.2731,-0.278,-0.25,-0.2492,-0.2485,-0.2549,-0.2543,-0.2537,0,0,0,0,0,-0.298,-0.3002,-0.3128,-0.3044,-0.3055,-0.3038,-0.3097,-0.3089,-0.3088,-0.2996,-0.2978,-0.3074,-0.2903,-0.2882,-0.2816,-0.2739,-0.2792,-0.2786,-0.2495,-0.2489,-0.2483,-0.2546,0,0,0,0,0,0,-0.2984,-0.2952,-0.3126,-0.3125,-0.3039,-0.3029,-0.3034,-0.3089,-0.2982,-0.2969,-0.3064,-0.306,-0.2904,-0.2888,-0.2873,-0.2744,-0.2801,-0.2795,-0.2791,-0.249,-0.2485,-0.2481,0,0,0,0,0,0,-0.2941,-0.2952,-0.3125,-0.3122,-0.3119,-0.3022,-0.3028,-0.2967,-0.2978,-0.305,-0.3047,-0.3063,-0.2913,-0.2892,-0.288,-0.2785,-0.2809,-0.2802,-0.2798,-0.2796,-0.2486,-0.2482,0,0,0,0,0,0,-0.2943,-0.2953,-0.3121,-0.3119,-0.3116,-0.309,-0.296,-0.3007,-0.3035,-0.3052,-0.3032,-0.3031,-0.2917,-0.2904,-0.2885,-0.2797,-0.2788,-0.2808,-0.2804,-0.2801,-0.2799,0,0,0,0,0,0,0,-0.2945,-0.2912,-0.315,-0.3116,-0.3114,-0.3118,-0.3116,-0.3114,-0.3034,-0.3033,-0.3033,-0.3032,-0.2843,-0.2837,-0.283,-0.2806,0,0,-0.2809,-0.2806,0,0,0,0,0,0,0,0,-0.2905,-0.2911,-0.315,-0.3151,-0.3152,-0.3118,-0.3116,-0.3115,-0.3034,-0.3033,-0.3033,-0.3032,-0.2842,-0.2836,-0.2831,0,0,0,0,0,0,0,0,0,0,0,0,0,0,0,-0.3151,-0.3151,0,-0.3118,-0.3116,-0.3115,-0.3034,-0.3033,-0.3033,-0.3032,-0.284,-0.2836,-0.2831,0,0,0,0,0,0,0,0,0,0,0,0,0,0,0,0,0,0,0,0,0,0,0,0,0,0,0,0,0,0,0,0,0,0,0,0,0,0,0,0,0,0,0,0,0,0,0,0,0,0,0,0,0,0,0,0,0,0,0,0,0,0,0,0,0,0,0,0,0]}],[{"header":{"parameterUnit":"kt","parameterCategory":2,"dx":1,"dy":1,"la1":30.253999710083008,"la2":30.299108505249023,"lo1":-89.0895004272461,"lo2":-89.04439544677734,"nx":28,"ny":28,"refTime":"2022-09-17T21:00:00:Z","depth":"0","parameterNumber":3,"parameterNumberName":"V-component_of_CURRENTS"},"data":[-0.1507,-0.1616,-0.1674,-0.1992,-0.2105,-0.2364,-0.2479,-0.2544,-0.2392,-0.1881,-0.1269,-0.0754,0.0454,0.2013,0.2847,0.2868,0.3091,0.3039,0.3182,0.2809,0.2758,0.2709,0.2771,0.3205,0.3206,0.368,0.3685,0.3689,-0.145,-0.1502,-0.1592,-0.1715,-0.19,-0.1869,-0.2039,-0.2135,-0.2213,-0.1913,-0.1697,-0.0713,0.0151,0.0971,0.1937,0.2238,0.2259,0.2361,0.2428,0.2468,0.1914,0.195,0.2217,0.2217,0.2216,0.2216,0.2216,0.2216,-0.1349,-0.1387,-0.14,-0.148,-0.1564,-0.1716,-0.1811,-0.1819,-0.1868,-0.1789,-0.1535,-0.1153,-0.0261,0.0667,0.0964,0.1612,0.153,0.175,0.1834,0.1861,0.1992,0.1389,0.1527,0.1527,0.1527,0.1526,0.1526,0,-0.1261,-0.1249,-0.1221,-0.1293,-0.1334,-0.1384,-0.1407,-0.1481,-0.1381,-0.1355,-0.1263,-0.107,-0.0463,0.0106,0.0725,0.0947,0.1329,0.1208,0.1456,0.1624,0.1715,0.184,0.1165,0.1222,0.122,0.1218,0.1217,0.1216,-0.1173,-0.1161,-0.1084,-0.1108,-0.1048,-0.105,-0.1079,-0.096,-0.0998,-0.0873,-0.0923,-0.0651,-0.0449,0.0081,0.0522,0.0932,0.1097,0.1147,0.1158,0.142,0.156,0.1615,0.1691,0.1193,0.1196,0.1198,0.12,0,-0.1139,-0.1017,-0.0968,-0.0841,-0.0824,-0.0839,-0.0772,-0.081,-0.0691,-0.0718,-0.0698,-0.0443,-0.0189,0.0139,0.0409,0.0611,0.0984,0.0927,0.0946,0.0998,0.1394,0.1488,0.1704,0.181,0.111,0.1113,0.1116,0,-0.0997,-0.0951,-0.0784,-0.074,-0.0764,-0.0576,-0.0609,-0.0511,-0.0431,-0.0457,-0.0224,-0.021,0.0091,0.0253,0.0456,0.0706,0.0643,0.0869,0.092,0.0929,0.0942,0.1146,0.1242,0.0766,0.0765,0.0765,0.0765,0,-0.0959,-0.0726,-0.0688,-0.0612,-0.0411,-0.0407,-0.0334,-0.0212,-0.0198,-0.0082,-0.0074,0.0077,0.0132,0.028,0.052,0.0527,0.0687,0.0715,0.0892,0.0902,0.0911,0.0923,0.1181,0.0764,0.0764,0.0763,0.0763,0,-0.078,-0.0687,-0.0533,-0.0443,-0.0403,-0.0272,-0.0263,-0.0115,0.0007,0.0073,0.0156,0.0259,0.0342,0.0432,0.0579,0.057,0.0661,0.0745,0.075,0.0823,0.0903,0.0892,0.1018,0.1265,0.085,0.085,0.085,0,-0.088,-0.0664,-0.0547,-0.037,-0.0285,-0.0172,-0.0054,0.0078,0.0179,0.026,0.0355,0.0455,0.0569,0.058,0.0632,0.0727,0.075,0.074,0.0796,0.0797,0.0803,0.0922,0.0945,0.1014,0.0851,0.0851,0.0851,0,-0.0969,-0.0718,-0.0694,-0.0657,-0.0398,-0.0286,-0.0101,0.0017,0.0011,0.031,0.0301,0.057,0.0569,0.0632,0.0695,0.0719,0.0761,0.0757,0.0757,0.0695,0.0802,0.0912,0.0922,0.0787,0.0786,0.0785,0.0852,0,-0.0931,-0.0863,-0.0769,-0.0607,-0.0464,-0.0312,-0.0147,-0.0008,0.0061,0.0156,0.0316,0.0511,0.0611,0.0711,0.0761,0.0796,0.0815,0.0831,0.0707,0.0803,0.0838,0.0838,0.0839,0.0839,0.0838,0.0838,0,0,-0.1124,-0.1059,-0.0986,-0.0817,-0.0746,-0.0617,-0.0477,-0.0318,-0.003,-0.0022,0.0065,0.0361,0.0491,0.0575,0.0653,0.0785,0.0795,0.0682,0.081,0.0807,0.0804,0.0836,0.0836,0.0837,0.0837,0.0837,0.0837,0,-0.115,-0.1171,-0.1084,-0.0933,-0.0743,-0.0651,-0.0597,-0.037,-0.0302,-0.0026,-0.0013,0.0124,0.0447,0.0482,0.0539,0.0771,0.0712,0.0853,0.0793,0.0808,0.0806,0.0803,0.0835,0.0835,0.0836,0.0836,0.0836,0,-0.1265,-0.1228,-0.1215,-0.1057,-0.0933,-0.0755,-0.078,-0.0578,-0.0459,-0.0395,-0.0159,-0.0037,0.0097,0.0321,0.0426,0.0377,0.0608,0.0605,0.0613,0.053,0.0537,0.0539,0.054,0.0495,0.0493,0.0491,0,0,-0.1285,-0.1261,-0.1129,-0.1059,-0.0982,-0.084,-0.0732,-0.0656,-0.0486,-0.0407,-0.0273,-0.0135,0.0012,0.0102,0.0284,0.0496,0.0464,0.0555,0.0571,0.0583,0.0509,0.052,0.0525,0.0483,0.0483,0.0483,0,0,-0.1269,-0.1215,-0.1238,-0.1172,-0.0991,-0.0801,-0.0685,-0.0649,-0.0451,-0.0464,-0.0387,-0.0342,-0.0105,-0.0029,-0.0134,0.0196,0.0142,0.0169,0.0103,0.0126,0.0142,-0.0005,-0.021,0,0,0,0,0,-0.1281,-0.1232,-0.1256,-0.1237,-0.1066,-0.0813,-0.0768,-0.0675,-0.074,-0.0609,-0.0493,-0.0529,-0.006,-0.015,-0.0101,-0.0054,0.0387,0.0404,0.042,0.0392,0.0414,0.0433,0,0,0,0,0,0,-0.1273,-0.1257,-0.1253,-0.1095,-0.1053,-0.082,-0.0901,-0.0869,-0.0748,-0.0745,-0.0548,-0.0523,-0.0458,-0.0175,-0.0131,-0.0088,-0.0225,0.0394,0.0408,0.0421,0.04,0.0418,0.0433,0,0,0,0,0,-0.1266,-0.1252,-0.1046,-0.1088,-0.1052,-0.0905,-0.0906,-0.0879,-0.0767,-0.063,-0.0602,-0.0707,-0.0458,-0.0415,-0.0148,-0.011,-0.0255,-0.0239,0.0403,0.0414,0.0425,0.0409,0,0,0,0,0,0,-0.126,-0.1173,-0.1031,-0.101,-0.1145,-0.0909,-0.0886,-0.0889,-0.0656,-0.0628,-0.0789,-0.0791,-0.0455,-0.0423,-0.039,-0.0121,-0.028,-0.0263,-0.0253,0.0412,0.0421,0.0429,0,0,0,0,0,0,-0.1179,-0.1158,-0.102,-0.1098,-0.1083,-0.0913,-0.0893,-0.071,-0.0655,-0.0826,-0.0821,-0.0793,-0.0525,-0.0427,-0.0402,-0.0113,-0.0299,-0.0283,-0.0272,-0.0265,0.0419,0.0426,0,0,0,0,0,0,-0.1165,-0.1145,-0.1102,-0.1091,-0.1078,-0.0817,-0.0743,-0.0584,-0.0706,-0.0837,-0.0718,-0.0724,-0.0532,-0.0503,-0.041,-0.0132,-0.0118,-0.0298,-0.0288,-0.028,-0.0275,0,0,0,0,0,0,0,-0.1153,-0.1352,-0.1174,-0.1085,-0.1074,-0.0811,-0.0803,-0.0796,-0.0707,-0.0712,-0.0717,-0.0721,-0.039,-0.0373,-0.0355,-0.0148,0,0,-0.03,-0.0292,0,0,0,0,0,0,0,0,-0.1353,-0.1352,-0.1174,-0.117,-0.1166,-0.081,-0.0804,-0.0798,-0.0708,-0.0712,-0.0716,-0.072,-0.0385,-0.0371,-0.0357,0,0,0,0,0,0,0,0,0,0,0,0,0,0,0,-0.1173,-0.117,0,-0.0809,-0.0804,-0.0799,-0.0709,-0.0712,-0.0715,-0.0718,-0.0381,-0.037,-0.0358,0,0,0,0,0,0,0,0,0,0,0,0,0,0,0,0,0,0,0,0,0,0,0,0,0,0,0,0,0,0,0,0,0,0,0,0,0,0,0,0,0,0,0,0,0,0,0,0,0,0,0,0,0,0,0,0,0,0,0,0,0,0,0,0,0,0,0,0,0]}]],[[{"header":{"parameterUnit":"kt","parameterCategory":2,"dx":1,"dy":1,"la1":30.253999710083008,"la2":30.299108505249023,"lo1":-89.0895004272461,"lo2":-89.04439544677734,"nx":28,"ny":28,"refTime":"2022-09-17T21:00:00:Z","depth":"2","parameterNumber":2,"parameterNumberName":"U-component_of_CURRENTS"},"data":[-0.2065,-0.2137,-0.2199,-0.2335,-0.2375,-0.2457,-0.2575,-0.2462,-0.2541,-0.2519,-0.2532,-0.2803,-0.2902,-0.2498,-0.2407,-0.2212,-0.2236,-0.21,-0.2914,-0.2621,-0.2643,-0.2701,-0.2339,0,0,0,0,0,-0.2064,-0.21,-0.219,-0.2299,-0.2418,-0.2454,-0.2739,-0.2727,-0.2839,-0.3099,-0.3184,-0.2995,-0.2941,-0.301,-0.2805,-0.2741,-0.2567,-0.26,-0.2324,-0.2357,-0.2384,-0.2121,-0.2076,-0.2073,-0.207,-0.2067,0,0,-0.2048,-0.2101,-0.2165,-0.2246,-0.2346,-0.2543,-0.2619,-0.2805,-0.3006,-0.3266,-0.3555,-0.3579,-0.3638,-0.3485,-0.3411,-0.3318,-0.344,-0.3127,-0.3125,-0.3129,-0.292,-0.2906,-0.3077,-0.3081,-0.3084,-0.3087,-0.309,0,-0.2056,-0.2052,-0.214,-0.222,-0.228,-0.2427,-0.2561,-0.2728,-0.3001,-0.317,-0.3515,-0.3625,-0.3919,-0.3749,-0.3825,-0.3708,-0.3452,-0.347,-0.3856,-0.2689,-0.2676,-0.2631,-0.2614,-0.2828,-0.2831,-0.2833,-0.2834,-0.2835,-0.198,-0.2044,-0.2145,-0.219,-0.2205,-0.229,-0.2371,-0.25,-0.2672,-0.3091,-0.3265,-0.3576,-0.3717,-0.395,-0.3835,-0.3821,-0.3765,-0.3536,-0.3061,-0.3311,-0.3276,-0.3237,-0.3202,-0.2864,-0.286,-0.2857,-0.2855,0,-0.1934,-0.198,-0.2101,-0.2206,-0.2222,-0.2284,-0.2397,-0.2517,-0.2628,-0.2882,-0.2926,-0.3151,-0.3373,-0.3402,-0.3511,-0.3381,-0.3436,-0.3484,-0.3215,-0.3173,-0.3201,-0.3168,-0.3565,-0.3569,-0.3572,-0.3575,-0.3577,0,-0.1877,-0.1953,-0.2012,-0.2073,-0.2197,-0.224,-0.2362,-0.2423,-0.2544,-0.2731,-0.2684,-0.2871,-0.2786,-0.2982,-0.2904,-0.3051,-0.3106,-0.2897,-0.2902,-0.2583,-0.2557,-0.2707,-0.2685,-0.2852,-0.2848,-0.2844,-0.2841,0,-0.1859,-0.1879,-0.1993,-0.2028,-0.215,-0.2196,-0.2239,-0.2332,-0.2433,-0.2504,-0.2607,-0.2614,-0.2687,-0.2661,-0.2719,-0.2544,-0.294,-0.2684,-0.2772,-0.2779,-0.2623,-0.2606,-0.2837,-0.2836,-0.2835,-0.2834,-0.2832,0,-0.1811,-0.1885,-0.1888,-0.2134,-0.2163,-0.2076,-0.2339,-0.2286,-0.2363,-0.2388,-0.2397,-0.236,-0.2414,-0.2241,-0.2389,-0.2265,-0.2304,-0.2319,-0.2334,-0.2416,-0.2314,-0.2475,-0.2483,-0.2514,-0.251,-0.2505,-0.2501,0,-0.201,-0.1961,-0.1996,-0.1991,-0.2068,-0.2189,-0.2146,-0.2187,-0.2212,-0.2248,-0.221,-0.2137,-0.2004,-0.1992,-0.1998,-0.2025,-0.2121,-0.1926,-0.2238,-0.2253,-0.2318,-0.2344,-0.2019,-0.2419,-0.2444,-0.245,-0.2454,0,-0.2172,-0.2244,-0.2231,-0.231,-0.2313,-0.2333,-0.2252,-0.232,-0.239,-0.2184,-0.2262,-0.1965,-0.202,-0.1951,-0.1892,-0.1927,-0.2037,-0.1895,-0.19,-0.2175,-0.2271,-0.227,-0.231,-0.1912,-0.1917,-0.192,-0.2409,0,-0.235,-0.2417,-0.2397,-0.2347,-0.2356,-0.2368,-0.2352,-0.2345,-0.2343,-0.2311,-0.2224,-0.2072,-0.2002,-0.1853,-0.1809,-0.1804,-0.1874,-0.1777,-0.1918,-0.185,-0.2067,-0.2102,-0.1713,-0.1714,-0.1716,-0.1717,0,0,-0.2568,-0.2613,-0.2707,-0.2614,-0.2667,-0.2733,-0.2673,-0.2608,-0.2518,-0.2575,-0.2454,-0.2224,-0.2101,-0.2019,-0.1911,-0.1812,-0.191,-0.1881,-0.1825,-0.1836,-0.1847,-0.2053,-0.2085,-0.172,-0.172,-0.1721,-0.1721,0,-0.2627,-0.2817,-0.2749,-0.2742,-0.2747,-0.2757,-0.2763,-0.2726,-0.2709,-0.255,-0.2513,-0.2424,-0.2146,-0.2092,-0.2015,-0.1844,-0.1927,-0.1701,-0.1787,-0.1832,-0.1841,-0.185,-0.2053,-0.2081,-0.1725,-0.1724,-0.1724,0,-0.2743,-0.2811,-0.2831,-0.2894,-0.2887,-0.2803,-0.2893,-0.2869,-0.2784,-0.2787,-0.2628,-0.2527,-0.2398,-0.2198,-0.2116,-0.2175,-0.205,-0.1957,-0.1946,-0.2074,-0.2132,-0.2138,-0.2143,-0.2101,-0.2103,-0.2104,0,0,-0.276,-0.281,-0.2856,-0.2903,-0.2913,-0.2908,-0.2898,-0.2877,-0.283,-0.2802,-0.2712,-0.2601,-0.245,-0.2398,-0.2245,-0.2132,-0.2265,-0.2005,-0.1988,-0.1973,-0.2089,-0.2144,-0.2147,-0.211,-0.211,-0.211,0,0,-0.2733,-0.2822,-0.2861,-0.2944,-0.2916,-0.2888,-0.2869,-0.2882,-0.2809,-0.281,-0.274,-0.271,-0.2525,-0.2498,-0.2587,-0.224,-0.2308,-0.229,-0.2274,-0.2251,-0.2234,-0.2405,-0.2535,0,0,0,0,0,-0.2771,-0.2824,-0.2861,-0.2882,-0.2943,-0.2898,-0.2889,-0.2859,-0.2903,-0.2857,-0.2798,-0.2766,-0.2482,-0.256,-0.2536,-0.2396,-0.2185,-0.2171,-0.2159,-0.2104,-0.2081,-0.2061,0,0,0,0,0,0,-0.2779,-0.281,-0.2857,-0.2857,-0.287,-0.2899,-0.2907,-0.2896,-0.2902,-0.2896,-0.2783,-0.2761,-0.268,-0.2569,-0.2548,-0.2413,-0.2542,-0.2179,-0.2168,-0.2158,-0.2096,-0.2077,-0.206,0,0,0,0,0,-0.2786,-0.281,-0.2944,-0.285,-0.2861,-0.2838,-0.2906,-0.2897,-0.2886,-0.2788,-0.2767,-0.287,-0.2682,-0.2658,-0.2556,-0.2422,-0.2556,-0.2549,-0.2172,-0.2163,-0.2155,-0.2087,0,0,0,0,0,0,-0.2791,-0.2752,-0.2941,-0.2939,-0.2851,-0.2829,-0.2835,-0.2897,-0.2773,-0.2759,-0.2867,-0.2863,-0.2683,-0.2664,-0.2647,-0.2424,-0.2567,-0.256,-0.2555,-0.2165,-0.2158,-0.2152,0,0,0,0,0,0,-0.2739,-0.2752,-0.2939,-0.2942,-0.2939,-0.2822,-0.2827,-0.2753,-0.2768,-0.2854,-0.2851,-0.2867,-0.2697,-0.2669,-0.2655,-0.2538,-0.2576,-0.2569,-0.2564,-0.2561,-0.216,-0.2154,0,0,0,0,0,0,-0.2741,-0.2751,-0.2941,-0.2939,-0.2936,-0.2894,-0.2746,-0.2794,-0.2832,-0.2856,-0.283,-0.283,-0.2702,-0.2687,-0.2661,-0.2551,-0.2541,-0.2576,-0.2571,-0.2567,-0.2565,0,0,0,0,0,0,0,-0.2743,-0.2715,-0.2974,-0.2936,-0.2933,-0.2922,-0.2919,-0.2917,-0.2832,-0.2831,-0.2831,-0.283,-0.2618,-0.261,-0.2602,-0.2561,0,0,-0.2577,-0.2573,0,0,0,0,0,0,0,0,-0.2707,-0.2713,-0.2974,-0.2975,-0.2975,-0.2921,-0.2919,-0.2917,-0.2832,-0.2831,-0.2831,-0.283,-0.2616,-0.2609,-0.2603,0,0,0,0,0,0,0,0,0,0,0,0,0,0,0,-0.2974,-0.2975,0,-0.2921,-0.2919,-0.2918,-0.2831,-0.2831,-0.2831,-0.283,-0.2614,-0.2608,-0.2603,0,0,0,0,0,0,0,0,0,0,0,0,0,0,0,0,0,0,0,0,0,0,0,0,0,0,0,0,0,0,0,0,0,0,0,0,0,0,0,0,0,0,0,0,0,0,0,0,0,0,0,0,0,0,0,0,0,0,0,0,0,0,0,0,0,0,0,0,0]}],[{"header":{"parameterUnit":"kt","parameterCategory":2,"dx":1,"dy":1,"la1":30.253999710083008,"la2":30.299108505249023,"lo1":-89.0895004272461,"lo2":-89.04439544677734,"nx":28,"ny":28,"refTime":"2022-09-17T21:00:00:Z","depth":"2","parameterNumber":3,"parameterNumberName":"V-component_of_CURRENTS"},"data":[-0.1847,-0.1954,-0.2043,-0.2253,-0.2347,-0.2489,-0.2524,-0.226,-0.2036,-0.1709,-0.1407,-0.0995,-0.0344,0.0058,0.0506,0.0811,0.079,0.0812,0.0817,0.0603,0.0591,0.0902,0.0679,0,0,0,0,0,-0.1859,-0.196,-0.2054,-0.2152,-0.2258,-0.2247,-0.2261,-0.2182,-0.2019,-0.1713,-0.1425,-0.0894,-0.0322,0.0195,0.0766,0.1087,0.103,0.1132,0.1005,0.0996,0.0989,0.0853,0.1073,0.1073,0.1074,0.1075,0,0,-0.1884,-0.1938,-0.1999,-0.2059,-0.2105,-0.2151,-0.2167,-0.2028,-0.1897,-0.1621,-0.1387,-0.0982,-0.0486,0.0265,0.0649,0.1011,0.0979,0.1042,0.1033,0.1025,0.0898,0.0854,0.1124,0.1125,0.1125,0.1126,0.1126,0,-0.188,-0.1891,-0.192,-0.1989,-0.1993,-0.1992,-0.193,-0.1892,-0.1694,-0.1511,-0.1248,-0.1012,-0.0413,0.0049,0.0591,0.0777,0.0895,0.0987,0.0977,0.067,0.0624,0.0696,0.0676,0.0867,0.0867,0.0866,0.0866,0.0866,-0.1794,-0.186,-0.1866,-0.1889,-0.1862,-0.1828,-0.1795,-0.1631,-0.1573,-0.1254,-0.1186,-0.0787,-0.0545,0.0073,0.0413,0.0816,0.0765,0.0961,0.0803,0.0714,0.0795,0.077,0.0748,0.0858,0.0859,0.086,0.086,0,-0.1737,-0.1735,-0.1802,-0.1757,-0.1738,-0.1732,-0.1601,-0.156,-0.1369,-0.1223,-0.114,-0.0803,-0.0461,-0.0144,0.0226,0.0355,0.0635,0.0715,0.0618,0.0699,0.0741,0.0722,0.0971,0.0975,0.0978,0.0981,0.0983,0,-0.1592,-0.1646,-0.1591,-0.1626,-0.1656,-0.1565,-0.1534,-0.1434,-0.1254,-0.116,-0.0935,-0.0791,-0.0483,-0.0227,-0.0054,0.0257,0.0284,0.0377,0.0483,0.0398,0.0397,0.041,0.0409,0.0383,0.038,0.0377,0.0375,0,-0.1429,-0.1441,-0.1521,-0.1524,-0.1464,-0.1458,-0.1405,-0.126,-0.1201,-0.0991,-0.0853,-0.0686,-0.0526,-0.0349,-0.011,-0.0146,0.0225,0.0234,0.0394,0.0404,0.0495,0.0507,0.0371,0.0371,0.037,0.0369,0.0368,0,-0.1268,-0.1278,-0.1341,-0.1355,-0.1341,-0.1317,-0.1265,-0.1219,-0.1038,-0.0923,-0.0793,-0.0621,-0.0542,-0.0499,-0.0255,-0.0321,-0.0179,-0.0044,-0.0024,0.0114,0.0237,0.0386,0.0437,0.0272,0.0269,0.0266,0.0264,0,-0.1198,-0.1211,-0.116,-0.1198,-0.1223,-0.1107,-0.1101,-0.0994,-0.0884,-0.0744,-0.065,-0.0532,-0.0527,-0.0451,-0.0433,-0.0231,-0.0194,-0.0334,0.016,0.0175,0.0116,0.0143,0.0073,0.0393,0.0231,0.0234,0.0237,0,-0.1135,-0.1081,-0.1079,-0.1115,-0.1009,-0.0925,-0.0916,-0.0841,-0.0825,-0.0623,-0.058,-0.055,-0.0406,-0.0376,-0.0312,-0.0277,-0.0233,-0.0158,-0.0146,-0.0095,0.0071,0.01,0.0127,-0.0164,-0.0162,-0.0161,0.021,0,-0.1082,-0.1098,-0.1056,-0.1028,-0.0936,-0.0865,-0.0772,-0.0655,-0.0592,-0.051,-0.0393,-0.0244,-0.0132,-0.014,-0.0128,-0.014,-0.0011,0.0043,0.0044,0.0036,0.0219,0.0238,0.0083,0.0088,0.0093,0.0096,0,0,-0.1102,-0.1109,-0.0979,-0.0937,-0.0916,-0.0741,-0.0725,-0.0636,-0.0403,-0.0366,-0.0298,-0.0078,-0.0018,-0.0046,-0.0075,0.0045,0.018,-0.0022,0.0073,0.0069,0.0067,0.0233,0.0247,0.0103,0.0105,0.0106,0.0108,0,-0.1095,-0.106,-0.1041,-0.0947,-0.08,-0.0731,-0.0694,-0.0503,-0.0459,-0.0305,-0.0266,-0.0166,0.0033,0.0025,0.0034,0.01,0.0183,0.0148,-0.0002,0.0104,0.0094,0.0087,0.0248,0.0257,0.0118,0.0117,0.0117,0,-0.1118,-0.1081,-0.1073,-0.0943,-0.084,-0.0781,-0.0705,-0.0551,-0.0548,-0.0382,-0.0285,-0.0157,-0.0058,0.0028,0.0088,0.01,0.0218,0.0174,0.0161,0.0148,0.0262,0.0253,0.0245,0.0328,0.0327,0.0325,0,0,-0.112,-0.1102,-0.0989,-0.094,-0.088,-0.0753,-0.0669,-0.06,-0.0458,-0.0391,-0.0276,-0.0164,-0.0103,-0.0044,0.0095,0.021,0.032,0.018,0.0171,0.0161,0.0141,0.0253,0.0247,0.0321,0.0321,0.0321,0,0,-0.1104,-0.1052,-0.1056,-0.1013,-0.0867,-0.071,-0.0627,-0.0583,-0.0418,-0.0425,-0.0347,-0.0309,-0.0186,-0.0067,-0.0134,-0.0005,0.0066,0.0085,-0.0178,-0.0187,-0.0195,-0.0276,-0.0181,0,0,0,0,0,-0.1093,-0.1066,-0.1073,-0.1058,-0.0915,-0.0722,-0.0685,-0.0604,-0.064,-0.0541,-0.0436,-0.0454,-0.0089,-0.0146,-0.0105,-0.02,0.0261,0.0272,0.0282,-0.002,-0.0031,-0.0041,0,0,0,0,0,0,-0.1086,-0.1073,-0.1071,-0.0939,-0.0904,-0.0726,-0.0773,-0.0745,-0.0646,-0.0642,-0.0471,-0.045,-0.0391,-0.0165,-0.0128,-0.0223,-0.0193,0.0265,0.0274,0.0282,-0.0024,-0.0033,-0.0041,0,0,0,0,0,-0.1081,-0.1069,-0.0895,-0.0933,-0.0903,-0.0781,-0.0776,-0.0753,-0.0656,-0.0542,-0.0517,-0.0604,-0.0391,-0.0355,-0.0143,-0.0244,-0.0218,-0.0205,0.0271,0.0278,0.0285,-0.0029,0,0,0,0,0,0,-0.1076,-0.1,-0.0883,-0.0866,-0.0976,-0.0784,-0.0763,-0.0761,-0.056,-0.0535,-0.0676,-0.0676,-0.039,-0.0362,-0.0334,-0.026,-0.0239,-0.0225,-0.0216,0.0277,0.0282,0.0287,0,0,0,0,0,0,-0.1005,-0.0987,-0.0873,-0.0934,-0.0922,-0.0787,-0.0769,-0.0618,-0.0559,-0.0701,-0.0696,-0.0679,-0.0449,-0.0366,-0.0345,-0.0108,-0.0255,-0.0241,-0.0232,-0.0226,0.0281,0.0285,0,0,0,0,0,0,-0.0993,-0.0977,-0.0937,-0.0928,-0.0917,-0.0704,-0.0647,-0.0512,-0.0603,-0.071,-0.0612,-0.0616,-0.0455,-0.043,-0.0352,-0.0124,-0.0112,-0.0254,-0.0245,-0.0239,-0.0235,0,0,0,0,0,0,0,-0.0983,-0.1148,-0.1002,-0.0923,-0.0914,-0.0707,-0.07,-0.0694,-0.0604,-0.0607,-0.0611,-0.0614,-0.033,-0.0315,-0.0301,-0.0138,0,0,-0.0255,-0.0249,0,0,0,0,0,0,0,0,-0.1149,-0.1148,-0.1001,-0.0999,-0.0996,-0.0706,-0.0701,-0.0695,-0.0604,-0.0607,-0.061,-0.0613,-0.0326,-0.0314,-0.0302,0,0,0,0,0,0,0,0,0,0,0,0,0,0,0,-0.1001,-0.0999,0,-0.0705,-0.0701,-0.0697,-0.0605,-0.0607,-0.0609,-0.0612,-0.0323,-0.0313,-0.0303,0,0,0,0,0,0,0,0,0,0,0,0,0,0,0,0,0,0,0,0,0,0,0,0,0,0,0,0,0,0,0,0,0,0,0,0,0,0,0,0,0,0,0,0,0,0,0,0,0,0,0,0,0,0,0,0,0,0,0,0,0,0,0,0,0,0,0,0,0]}]],[[{"header":{"parameterUnit":"kt","parameterCategory":2,"dx":1,"dy":1,"la1":30.253999710083008,"la2":30.299108505249023,"lo1":-89.0895004272461,"lo2":-89.04439544677734,"nx":28,"ny":28,"refTime":"2022-09-17T21:00:00:Z","depth":"4","parameterNumber":2,"parameterNumberName":"U-component_of_CURRENTS"},"data":[-0.128,-0.1324,-0.1323,-0.1268,-0.1266,-0.1334,-0.1438,-0.1568,-0.1596,-0.1789,-0.1844,-0.2009,-0.2098,-0.2154,-0.2179,-0.2203,-0.2163,-0.2427,-0.2423,-0.2421,-0.243,-0.2438,-0.2368,0,0,0,0,0,-0.1339,-0.1332,-0.1379,-0.1444,-0.153,-0.1575,-0.1745,-0.1874,-0.2046,-0.2002,-0.2113,-0.2138,-0.2191,-0.2258,-0.2238,-0.2357,-0.2395,-0.2324,-0.2313,-0.2427,-0.2436,-0.2365,0,0,0,0,0,0,-0.142,-0.1439,-0.1543,-0.161,-0.1712,-0.1747,-0.1871,-0.195,-0.2046,-0.2226,-0.2198,-0.2325,-0.2427,-0.2439,-0.2405,-0.2402,-0.2412,-0.234,-0.2354,-0.2364,-0.2293,-0.2273,-0.2193,0,0,0,0,0,-0.1483,-0.157,-0.166,-0.1748,-0.1848,-0.1961,-0.2075,-0.2115,-0.2279,-0.2444,-0.2442,-0.2489,-0.2495,-0.251,-0.2494,-0.2459,-0.2537,-0.248,-0.2486,-0.2478,-0.2479,-0.2458,-0.2459,-0.2473,-0.2474,-0.2475,-0.2475,0,-0.1578,-0.1618,-0.1812,-0.1866,-0.1954,-0.2093,-0.217,-0.2355,-0.2413,-0.2567,-0.2547,-0.2649,-0.2691,-0.2586,-0.2601,-0.2586,-0.2535,-0.2505,-0.2496,-0.2494,-0.2471,-0.2469,-0.2468,-0.2483,-0.2482,-0.2482,-0.2481,0,-0.1618,-0.1732,-0.1832,-0.2007,-0.2061,-0.2127,-0.2319,-0.2394,-0.2542,-0.2607,-0.2656,-0.275,-0.2764,-0.277,-0.2726,-0.2639,-0.2588,-0.2534,-0.2616,-0.2594,-0.2484,-0.2479,-0.2495,-0.2493,-0.249,-0.2488,-0.2487,0,-0.1709,-0.178,-0.1918,-0.1976,-0.2088,-0.2183,-0.2325,-0.2393,-0.2522,-0.2576,-0.2708,-0.2745,-0.2769,-0.2749,-0.2708,-0.2618,-0.2665,-0.2543,-0.2519,-0.2579,-0.2575,-0.2556,-0.2548,-0.2618,-0.2618,-0.2617,-0.2617,0,-0.1709,-0.1825,-0.1921,-0.1979,-0.2116,-0.2185,-0.2264,-0.2375,-0.2434,-0.2573,-0.2658,-0.2725,-0.2744,-0.2737,-0.2665,-0.2671,-0.2633,-0.2625,-0.252,-0.2515,-0.255,-0.2543,-0.2617,-0.2616,-0.2616,-0.2616,-0.2616,0,-0.1754,-0.1843,-0.1895,-0.207,-0.2069,-0.213,-0.2284,-0.2329,-0.2427,-0.25,-0.2591,-0.2638,-0.2664,-0.2626,-0.2618,-0.2615,-0.2579,-0.255,-0.2551,-0.2446,-0.2395,-0.2511,-0.2548,-0.2547,-0.2546,-0.2546,-0.2545,0,-0.1819,-0.1874,-0.1925,-0.2019,-0.2018,-0.2171,-0.2163,-0.2295,-0.2379,-0.245,-0.2481,-0.251,-0.248,-0.2539,-0.2527,-0.2497,-0.2504,-0.2477,-0.2475,-0.2476,-0.2418,-0.2431,-0.2475,-0.2535,-0.2536,-0.2537,-0.2538,0,-0.1811,-0.1912,-0.1929,-0.1968,-0.2115,-0.2154,-0.2216,-0.2251,-0.2322,-0.2455,-0.2458,-0.2413,-0.2525,-0.2466,-0.2459,-0.2456,-0.2487,-0.2435,-0.2434,-0.2489,-0.2521,-0.243,-0.2428,-0.247,-0.2471,-0.2472,-0.2531,0,-0.183,-0.1885,-0.1935,-0.1947,-0.1974,-0.2145,-0.2132,-0.2263,-0.2351,-0.2383,-0.2465,-0.2476,-0.2462,-0.2441,-0.2361,-0.2388,-0.2397,-0.236,-0.2366,-0.2377,-0.2398,-0.2404,-0.2315,-0.2314,-0.2313,-0.2312,0,0,-0.18,-0.1841,-0.1862,-0.1867,-0.1923,-0.2049,-0.2061,-0.2092,-0.2264,-0.2316,-0.2339,-0.2351,-0.2351,-0.2305,-0.2309,-0.2308,-0.2324,-0.2354,-0.2355,-0.2361,-0.2365,-0.2387,-0.2394,-0.231,-0.231,-0.2309,-0.2309,0,-0.177,-0.1833,-0.1841,-0.1858,-0.1984,-0.1999,-0.2035,-0.2128,-0.2186,-0.2265,-0.2286,-0.235,-0.2333,-0.2328,-0.2268,-0.2295,-0.2322,-0.2299,-0.2349,-0.2347,-0.2353,-0.2359,-0.2382,-0.2388,-0.2306,-0.2307,-0.2307,0,-0.1668,-0.1729,-0.1759,-0.1774,-0.1803,-0.178,-0.1789,-0.198,-0.2005,-0.2045,-0.2163,-0.2199,-0.213,-0.2202,-0.2244,-0.2239,-0.2315,-0.2295,-0.2298,-0.2315,-0.2312,-0.2318,-0.2324,-0.2258,-0.2259,-0.2259,0,0,-0.1625,-0.1709,-0.1659,-0.1753,-0.1729,-0.1757,-0.1789,-0.1909,-0.1975,-0.2019,-0.2084,-0.2149,-0.2115,-0.2174,-0.2217,-0.228,-0.228,-0.2294,-0.2296,-0.2299,-0.2317,-0.2314,-0.2319,-0.226,-0.226,-0.226,0,0,-0.1625,-0.1643,-0.1637,-0.1686,-0.1703,-0.1736,-0.1803,-0.1809,-0.1889,-0.2031,-0.2002,-0.2032,-0.2133,-0.2146,-0.2156,-0.2225,-0.2205,-0.2206,-0.2255,-0.2258,-0.226,-0.2277,-0.2188,0,0,0,0,0,-0.1587,-0.1627,-0.162,-0.1631,-0.168,-0.1712,-0.172,-0.1791,-0.1832,-0.1855,-0.1947,-0.1984,-0.2151,-0.2163,-0.2182,-0.2217,-0.2276,-0.2273,-0.2271,-0.2346,-0.2348,-0.235,0,0,0,0,0,0,-0.1592,-0.16,-0.1621,-0.1648,-0.1662,-0.171,-0.1749,-0.1766,-0.1832,-0.1846,-0.196,-0.1984,-0.2031,-0.2157,-0.2173,-0.2206,-0.2182,-0.2275,-0.2272,-0.227,-0.2347,-0.2349,-0.2351,0,0,0,0,0,-0.1595,-0.1603,-0.1668,-0.1649,-0.1661,-0.175,-0.1751,-0.1766,-0.1823,-0.191,-0.1936,-0.1888,-0.2026,-0.205,-0.2167,-0.2197,-0.2171,-0.2177,-0.2273,-0.2271,-0.227,-0.2348,0,0,0,0,0,0,-0.1599,-0.1597,-0.1672,-0.1678,-0.1684,-0.1752,-0.1764,-0.1766,-0.1886,-0.191,-0.1838,-0.1846,-0.2022,-0.2042,-0.206,-0.2192,-0.2162,-0.2168,-0.2172,-0.2272,-0.227,-0.2269,0,0,0,0,0,0,-0.1595,-0.1601,-0.1674,-0.1714,-0.1725,-0.1752,-0.1764,-0.1815,-0.189,-0.1806,-0.1817,-0.1841,-0.204,-0.2035,-0.205,-0.2122,-0.2155,-0.2161,-0.2165,-0.2168,-0.2271,-0.227,0,0,0,0,0,0,-0.1599,-0.1605,-0.1712,-0.172,-0.173,-0.1801,-0.1803,-0.1872,-0.1856,-0.1801,-0.1866,-0.1871,-0.2035,-0.2048,-0.2042,-0.2107,-0.2118,-0.2155,-0.2159,-0.2162,-0.2164,0,0,0,0,0,0,0,-0.1603,-0.1548,-0.1646,-0.1726,-0.1734,-0.1742,-0.1742,-0.1743,-0.1857,-0.1861,-0.1865,-0.1869,-0.2122,-0.2128,-0.2135,-0.2095,0,0,-0.2155,-0.2158,0,0,0,0,0,0,0,0,-0.1548,-0.1548,-0.1646,-0.1648,-0.165,-0.1742,-0.1742,-0.1743,-0.1858,-0.1861,-0.1864,-0.1868,-0.2123,-0.2129,-0.2134,0,0,0,0,0,0,0,0,0,0,0,0,0,0,0,-0.1646,-0.1648,0,-0.1742,-0.1742,-0.1743,-0.1858,-0.1861,-0.1864,-0.1866,-0.2125,-0.2129,-0.2133,0,0,0,0,0,0,0,0,0,0,0,0,0,0,0,0,0,0,0,0,0,0,0,0,0,0,0,0,0,0,0,0,0,0,0,0,0,0,0,0,0,0,0,0,0,0,0,0,0,0,0,0,0,0,0,0,0,0,0,0,0,0,0,0,0,0,0,0,0]}],[{"header":{"parameterUnit":"kt","parameterCategory":2,"dx":1,"dy":1,"la1":30.253999710083008,"la2":30.299108505249023,"lo1":-89.0895004272461,"lo2":-89.04439544677734,"nx":28,"ny":28,"refTime":"2022-09-17T21:00:00:Z","depth":"4","parameterNumber":3,"parameterNumberName":"V-component_of_CURRENTS"},"data":[-0.0304,-0.0414,-0.0481,-0.069,-0.0804,-0.0964,-0.1031,-0.1023,-0.0981,-0.0925,-0.0771,-0.0658,-0.0368,-0.0528,-0.0075,-0.0012,0.0117,0.0391,0.0396,0.0586,0.0586,0.0586,0.0547,0,0,0,0,0,-0.0272,-0.0347,-0.0485,-0.0643,-0.0799,-0.087,-0.0974,-0.0983,-0.0958,-0.0935,-0.0869,-0.0718,-0.0415,-0.0276,-0.0083,0.0002,0.0293,0.0238,0.0394,0.0586,0.0586,0.0548,0,0,0,0,0,0,-0.0235,-0.0306,-0.0409,-0.0545,-0.0698,-0.0827,-0.0863,-0.0893,-0.0912,-0.0835,-0.0824,-0.0623,-0.0505,-0.0205,-0.0026,0.0166,0.0261,0.0344,0.0357,0.0359,0.0293,0.0231,0.0195,0,0,0,0,0,-0.0191,-0.0233,-0.0312,-0.0464,-0.057,-0.0693,-0.0764,-0.0801,-0.0781,-0.0758,-0.0695,-0.0535,-0.0392,-0.0138,0.004,0.0249,0.0448,0.0483,0.0486,0.0561,0.0538,0.0521,0.0514,0.0586,0.0586,0.0586,0.0586,0,-0.0144,-0.0182,-0.0302,-0.0382,-0.0421,-0.0504,-0.0572,-0.0566,-0.0597,-0.0564,-0.0584,-0.0472,-0.0364,-0.0121,0.0096,0.037,0.041,0.0481,0.0559,0.0537,0.0522,0.0514,0.0506,0.0586,0.0586,0.0586,0.0586,0,-0.0121,-0.015,-0.023,-0.0294,-0.0324,-0.038,-0.045,-0.0492,-0.0444,-0.0474,-0.0462,-0.0341,-0.0198,-0.0017,0.0165,0.0296,0.0443,0.0481,0.0421,0.0405,0.0511,0.0503,0.0586,0.0586,0.0586,0.0586,0.0586,0,-0.0096,-0.0135,-0.0193,-0.023,-0.0303,-0.029,-0.0341,-0.0315,-0.03,-0.0326,-0.0192,-0.0187,0.001,0.0095,0.0243,0.0382,0.0382,0.0505,0.0498,0.0469,0.0461,0.0431,0.0419,0.0535,0.0535,0.0534,0.0534,0,-0.0073,-0.0117,-0.0162,-0.018,-0.0213,-0.0221,-0.0221,-0.0182,-0.0188,-0.0123,-0.0149,-0.0004,0.002,0.0156,0.0281,0.0295,0.0405,0.0425,0.0476,0.0474,0.0424,0.0412,0.0533,0.0533,0.0533,0.0533,0.0533,0,-0.0045,-0.0077,-0.0128,-0.0162,-0.0183,-0.0187,-0.0183,-0.0155,-0.0093,-0.0081,-0.0011,0.0023,0.0149,0.0171,0.0331,0.0291,0.0351,0.0396,0.0397,0.0343,0.03,0.0314,0.0394,0.0393,0.0392,0.0391,0.039,0,-0.0015,-0.0068,-0.006,-0.0095,-0.0136,-0.0117,-0.0084,-0.006,-0.0032,-0.0035,0.0075,0.009,0.017,0.0163,0.0249,0.0287,0.0354,0.0316,0.0303,0.0303,0.0304,0.0375,0.0319,0.0374,0.0376,0.0377,0.0378,0,0.0007,-0.0032,-0.0033,-0.0044,-0.0048,-0.0103,-0.0046,-0.0036,-0.0014,-0.0004,0.0021,0.0137,0.0118,0.0153,0.0185,0.024,0.033,0.021,0.0209,0.0256,0.0377,0.0357,0.0365,0.031,0.0312,0.0313,0.0367,0,0.0034,0.0034,-0.0006,0.0011,-0.003,-0.0084,-0.0057,-0.0084,-0.0052,-0.0029,0.0,0.0008,0.0023,0.0069,0.0096,0.018,0.0146,0.0123,0.0105,0.0147,0.0159,0.0169,0.0032,0.003,0.0028,0.0027,0,0,0.0091,0.0089,0.0057,0.0031,0.0013,0.0008,-0.0022,-0.001,-0.0071,-0.0065,-0.007,-0.0048,-0.0037,0.0054,0.0089,0.0048,0.0038,0.0051,0.0108,0.0118,0.0126,0.0142,0.0153,0.0024,0.0023,0.0023,0.0022,0,0.0114,0.0115,0.0093,0.0056,0.0021,0.002,0.0005,-0.0049,-0.0035,-0.0071,-0.0026,-0.0019,-0.0072,-0.0015,0.002,0.0019,0.002,0.0015,0.0065,0.0094,0.0105,0.0115,0.0134,0.0145,0.0018,0.0018,0.0018,0,0.0163,0.0177,0.0169,0.0136,0.0108,0.0081,0.009,0.0024,0.0053,0.0015,-0.0006,-0.0019,-0.0005,-0.0014,-0.0027,-0.0044,-0.0015,-0.0047,-0.004,-0.0042,-0.0014,-0.0002,0.001,-0.0126,-0.0126,-0.0126,0,0,0.0189,0.018,0.0167,0.0147,0.0117,0.0107,0.0074,0.0077,0.0041,0.0023,-0.0009,-0.0016,0.0007,-0.0015,-0.0046,-0.0097,-0.0103,-0.0058,-0.0052,-0.0046,-0.0043,-0.0015,-0.0003,-0.0125,-0.0125,-0.0125,0,0,0.0193,0.0206,0.0248,0.022,0.0176,0.0139,0.0083,0.0104,0.0051,0.0069,0.0068,0.0057,0.0033,-0.0015,-0.0009,-0.0002,-0.0038,-0.0043,0.0052,0.006,0.0066,0.0088,0.0026,0,0,0,0,0,0.0245,0.0207,0.0247,0.0247,0.0222,0.0134,0.0121,0.0118,0.0171,0.0111,0.0106,0.0121,0.0005,0.0008,-0.0011,0.0051,-0.0121,-0.0122,-0.0122,-0.0012,-0.0004,0.0003,0,0,0,0,0,0,0.0245,0.0248,0.0246,0.0222,0.0216,0.0138,0.021,0.0205,0.0175,0.0179,0.0124,0.0119,0.0108,0.0017,0.0,0.0062,0.0032,-0.0121,-0.0122,-0.0122,-0.001,-0.0003,0.0003,0,0,0,0,0,0.0245,0.0247,0.0228,0.0219,0.0214,0.0198,0.0212,0.0209,0.0179,0.0149,0.0144,0.0181,0.0107,0.0092,0.0007,0.0072,0.0044,0.0037,-0.0122,-0.0122,-0.0123,-0.0006,0,0,0,0,0,0,0.0245,0.0218,0.0225,0.022,0.0251,0.0199,0.0198,0.0212,0.015,0.0145,0.0206,0.0209,0.0105,0.0094,0.0083,0.008,0.0053,0.0047,0.0043,-0.0122,-0.0122,-0.0123,0,0,0,0,0,0,0.0217,0.0214,0.0222,0.0262,0.0261,0.02,0.02,0.0125,0.0149,0.0208,0.0211,0.0208,0.0127,0.0095,0.0086,-0.0033,0.0061,0.0055,0.005,0.0048,-0.0122,-0.0123,0,0,0,0,0,0,0.0214,0.0212,0.0263,0.0262,0.0261,0.02,0.0131,0.0107,0.0187,0.021,0.0194,0.0198,0.0128,0.0119,0.0088,-0.0027,-0.0031,0.006,0.0056,0.0053,0.0051,0,0,0,0,0,0,0,0.0212,0.0249,0.0262,0.0262,0.0262,0.0175,0.0173,0.0171,0.0187,0.019,0.0194,0.0196,0.0096,0.0089,0.0082,-0.0022,0,0,0.0061,0.0058,0,0,0,0,0,0,0,0,0.0247,0.0248,0.0261,0.0261,0.026,0.0175,0.0173,0.0171,0.0188,0.019,0.0193,0.0195,0.0094,0.0089,0.0083,0,0,0,0,0,0,0,0,0,0,0,0,0,0,0,0.0261,0.0261,0,0.0174,0.0173,0.0172,0.0188,0.019,0.0192,0.0194,0.0092,0.0088,0.0083,0,0,0,0,0,0,0,0,0,0,0,0,0,0,0,0,0,0,0,0,0,0,0,0,0,0,0,0,0,0,0,0,0,0,0,0,0,0,0,0,0,0,0,0,0,0,0,0,0,0,0,0,0,0,0,0,0,0,0,0,0,0,0,0,0,0,0,0,0]}]]]